Burlington, VT

3:50 AM EST on November 20, 2019 (GMT -0500)
Burlington International

Weather History for KBTV - September, 2019

Change the Weather History Date:

Sunday, September 29, 2019

  Actual Average Record
Temperature  
Mean Temperature 54 °F 55 °F  
Max Temperature 63 °F 64 °F 82 °F (1948)
Min Temperature 44 °F 45 °F 25 °F (1914)
Degree Days  
Heating Degree Days 11 11  
Month to date heating degree days 91 164  
Since 1 July heating degree days 95 206  
Cooling Degree Days 0 0  
Month to date cooling degree days 26 41  
Year to date cooling degree days 606 489  
Growing Degree Days 3 (Base 50)    
Moisture  
Dew Point 42 °F    
Average Humidity 62    
Maximum Humidity 82    
Minimum Humidity 42    
Precipitation  
Precipitation 0.00 in 0.13 in 2.04 in (2015)
Month to date precipitation 3.71 3.52  
Year to date precipitation 30.00 27.59  
Sea Level Pressure  
Sea Level Pressure 30.35 in    
Wind  
Wind Speed 9 mph (North)    
Max Wind Speed 22 mph    
Max Gust Speed 26 mph    
Visibility 10 miles    
Events      
T = Trace of Precipitation, MM = Missing Value Source: NWS Daily Summary

Daily Weather History Graph

Daily Weather History Graph

Search for Another Location

Airport or City:

Astronomy

Sep. 29, 2019 Rise Set
Actual Time 6:47 AM EDT 6:37 PM EDT
Civil Twilight 6:18 AM EDT 7:06 PM EDT
Nautical Twilight 5:44 AM EDT 7:40 PM EDT
Astronomical Twilight 5:10 AM EDT 8:14 PM EDT
Moon 7:35 AM EDT (9/29) 7:34 PM EDT (9/29)
Length of Visible Light 12h 47m
Length of Day
11h 49m
New Moon, 1% of the Moon is Illuminated
Sep 29
New Moon
Oct 5
First Quarter
Oct 13
Full
Oct 21
Last Quarter
Oct 27
New

Hourly Weather History & Observations

Time (EDT) Temp. Windchill Dew Point Humidity Pressure Visibility Wind Dir Wind Speed Gust Speed Precip Events Conditions
12:42 AM 63.0 °F - 57.0 °F 81% 30.15 in 10.0 mi NNW 15.0 mph - N/A   Overcast
12:54 AM 63.0 °F - 57.0 °F 81% 30.16 in 10.0 mi NNW 15.0 mph - N/A   Overcast
1:54 AM 61.0 °F - 54.0 °F 78% 30.18 in 10.0 mi NNW 16.1 mph 25.3 mph N/A   Overcast
2:54 AM 60.1 °F - 52.0 °F 75% 30.20 in 10.0 mi NNW 15.0 mph 21.9 mph N/A   Overcast
3:54 AM 57.9 °F - 51.1 °F 78% 30.23 in 10.0 mi NNW 19.6 mph 25.3 mph N/A   Overcast
4:25 AM 55.9 °F - 48.0 °F 75% 30.24 in 10.0 mi North 13.8 mph - N/A   Overcast
4:54 AM 54.0 °F - 46.0 °F 75% 30.28 in 10.0 mi North 16.1 mph 24.2 mph N/A   Overcast
5:54 AM 52.0 °F - 43.0 °F 71% 30.30 in 10.0 mi NNE 10.4 mph - N/A   Overcast
6:54 AM 50.0 °F - 39.9 °F 68% 30.35 in 10.0 mi North 6.9 mph - N/A   Overcast
7:24 AM 48.9 °F - 39.9 °F 71% 30.36 in 10.0 mi North 6.9 mph - N/A   Overcast
7:54 AM 50.0 °F - 39.9 °F 68% 30.38 in 10.0 mi North 4.6 mph - N/A   Mostly Cloudy
8:54 AM 52.0 °F - 37.0 °F 57% 30.41 in 10.0 mi North 11.5 mph - N/A   Partly Cloudy
9:54 AM 53.1 °F - 37.0 °F 55% 30.42 in 10.0 mi NNE 13.8 mph - N/A   Scattered Clouds
10:54 AM 55.0 °F - 37.0 °F 51% 30.43 in 10.0 mi North 9.2 mph - N/A   Scattered Clouds
11:54 AM 55.9 °F - 35.1 °F 45% 30.43 in 10.0 mi North 12.7 mph 16.1 mph N/A   Scattered Clouds
12:54 PM 57.0 °F - 37.0 °F 47% 30.42 in 10.0 mi WNW 11.5 mph - N/A   Scattered Clouds
1:54 PM 57.0 °F - 36.0 °F 45% 30.40 in 10.0 mi NNW 11.5 mph - N/A   Mostly Cloudy
2:54 PM 57.9 °F - 35.1 °F 42% 30.40 in 10.0 mi NNW 10.4 mph - N/A   Mostly Cloudy
3:54 PM 57.9 °F - 35.1 °F 42% 30.39 in 10.0 mi North 11.5 mph - N/A   Mostly Cloudy
4:54 PM 57.9 °F - 36.0 °F 44% 30.37 in 10.0 mi NE 6.9 mph - N/A   Mostly Cloudy
5:54 PM 55.9 °F - 37.9 °F 51% 30.37 in 10.0 mi NNE 6.9 mph - N/A   Mostly Cloudy
6:54 PM 54.0 °F - 37.9 °F 55% 30.39 in 10.0 mi NNE 3.5 mph - N/A   Mostly Cloudy
7:54 PM 51.1 °F - 39.9 °F 66% 30.40 in 10.0 mi NNE 3.5 mph - N/A   Mostly Cloudy
8:54 PM 50.0 °F - 42.1 °F 74% 30.42 in 10.0 mi Calm Calm - N/A   Mostly Cloudy
9:54 PM 46.9 °F - 41.0 °F 80% 30.42 in 10.0 mi Calm Calm - N/A   Mostly Cloudy
10:54 PM 46.0 °F 43.1 °F 41.0 °F 83% 30.40 in 10.0 mi East 5.8 mph - N/A   Mostly Cloudy
11:54 PM 45.0 °F 43.5 °F 39.9 °F 82% 30.41 in 10.0 mi ENE 3.5 mph - N/A   Mostly Cloudy